Hourly Data Report for October 15, 2021

BORDEN AWOS
ONTARIO
Current Station Operator: DND

44°16'20.000" N
79°54'42.000" W
222.50 m
611B002
71534
YBN

Download Data

Hourly Data (October 2021)
Hourly Data Report for October 15, 2021
TIME
LST
Temp Definition
°C
Dew Point Definition
°C
Rel Hum Definition
%
Precip. Amount Definition
mm

Wind Dir Definition
10's deg

Wind Spd Definition
km/h
Visibility Definition
km
Stn Press Definition
kPa
Hmdx Definition


Wind Chill Definition


Weather Definition


00:00 17.6 17.2 98   18 6 4.0 98.41     Rain
01:00
02:00 17.8 16.9 95   28 9 14.5 98.44     LegendNANA
03:00 17.4 16.5 95   28 9 14.5 98.46     LegendNANA
04:00 15.2 15.0 99   27 7 1.9 98.51     LegendNANA
05:00 13.8 13.5 98     0 14.5 98.53     LegendNANA
06:00 13.1 13.0 99   25 6 14.5 98.56     LegendNANA
07:00 12.9 12.8 99     0 14.5 98.59     LegendNANA
08:00 14.4 13.8 96     0 14.5 98.60     LegendNANA
09:00 14.9 14.2 96   21 4 14.5 98.59     LegendNANA
10:00 15.8 14.2 90     0 14.5 98.55     LegendNANA
11:00 17.0 13.9 82     0 14.5 98.59     LegendNANA
12:00 18.6 13.0 70   21 7 14.5 98.53     LegendNANA
13:00 19.1 12.1 64   16 4 14.5 98.40     LegendNANA
14:00 18.9 12.3 66   7 6 14.5 98.33     LegendNANA
15:00 17.8 14.1 79   12 7 14.5 98.32     Rain
16:00 17.1 14.9 87   36 4 14.5 98.30     LegendNANA
17:00
18:00 15.4 14.4 94   1 7 14.5 98.22     Drizzle
19:00 14.7 13.5 93   4 4 12.9 98.18     Rain
20:00 14.0 13.5 97   11 4 14.5 98.11     Rain
21:00 14.0 13.7 98   6 6 14.5 98.02     LegendNANA
22:00 14.0 13.7 98     0 14.5 97.95     Drizzle
23:00 13.3 12.8 97   32 19 8.0 98.02     Rain

Notes on Data Quality.

Legend

  • E = Estimated
  • M = Missing
  • NA = Not Available*
  • [empty] = Indicates an unobserved value
Date modified: